Weather History for Culpeper, VA

Change the Weather History Date:

Sunday, June 23, 2013

  Actual Average (KOMH) Record (KOMH)
Temperature  
Mean Temperature 78 °F -  
Max Temperature 87 °F 84 °F 97 °F (1988)
Min Temperature 68 °F 63 °F 49 °F (1992)
Cooling Degree Days 12    
Growing Degree Days 28 (Base 50)    
Moisture  
Dew Point 71 °F    
Average Humidity 87    
Maximum Humidity 100    
Minimum Humidity 55    
Precipitation  
Precipitation 0.31 in - - ()
Sea Level Pressure  
Sea Level Pressure 30.16 in    
Wind  
Wind Speed 1 mph (South)    
Max Wind Speed 7 mph    
Max Gust Speed -    
Visibility 8 miles    
Events Rain    
Averages and records for this station are not official NWS values.
T = Trace of Precipitation, MM = Missing Value Source: NWS Daily Summary

Daily Weather History Graph

Daily Weather History Graph

Search for Another Location

Airport:

Trip Planner

Search our weather history database for the weather conditions in past years. The results will help you decide how hot, cold, wet, or windy it might be!

Date:

Astronomy

Jun. 23, 2013 Rise Set
Actual Time 5:48 AM EDT 8:39 PM EDT
Civil Twilight 5:16 AM EDT 9:11 PM EDT
Nautical Twilight 4:36 AM EDT 9:51 PM EDT
Astronomical Twilight 3:50 AM EDT 10:37 PM EDT
Moon 8:51 PM EDT (6/23) 6:02 AM EDT (6/23)
Length of Visible Light 15h 55m
Length of Day
14h 51m
Full, 100% of the Moon is Illuminated
Jun 23
Full
Jun 30
Last Quarter
Jul 8
New
Jul 15
First Quarter
Jul 22
Full

Hourly Weather History & Observations

Time (EDT) Temp. Heat Index Dew Point Humidity Pressure Visibility Wind Dir Wind Speed Gust Speed Precip Events Conditions
12:15 AM 71.6 °F - 69.8 °F 94% 30.21 in 10.0 mi SSE 3.5 mph - N/A   Clear
12:35 AM 71.6 °F - 69.8 °F 94% 30.21 in 10.0 mi South 3.5 mph - N/A   Clear
12:55 AM 71.6 °F - 71.6 °F 100% 30.21 in 10.0 mi Calm Calm - N/A   Clear
1:15 AM 71.6 °F - 69.8 °F 94% 30.19 in 10.0 mi Calm Calm - N/A   Clear
1:35 AM 69.8 °F - 69.8 °F 100% 30.19 in 10.0 mi Calm Calm - N/A   Clear
1:55 AM 69.8 °F - 69.8 °F 100% 30.18 in 10.0 mi Calm Calm - N/A   Clear
2:15 AM 69.8 °F - 69.8 °F 100% 30.18 in 10.0 mi Calm Calm - N/A   Clear
2:35 AM 68.0 °F - 68.0 °F 100% 30.17 in 5.0 mi Calm Calm - N/A   Clear
2:55 AM 68.0 °F - 68.0 °F 100% 30.16 in 10.0 mi Calm Calm - N/A   Clear
3:15 AM 68.0 °F - 68.0 °F 100% 30.17 in 7.0 mi Calm Calm - N/A   Scattered Clouds
3:35 AM 68.0 °F - 68.0 °F 100% 30.17 in 5.0 mi Calm Calm - N/A   Mostly Cloudy
3:55 AM 68.0 °F - 68.0 °F 100% 30.17 in 7.0 mi Calm Calm - N/A   Overcast
4:15 AM 69.8 °F - 69.8 °F 100% 30.17 in 10.0 mi Calm Calm - N/A   Overcast
4:35 AM 69.8 °F - 69.8 °F 100% 30.17 in 10.0 mi Calm Calm - N/A   Overcast
4:55 AM 69.8 °F - 69.8 °F 100% 30.17 in 10.0 mi Calm Calm - N/A Rain Light Rain
5:15 AM 69.8 °F - 69.8 °F 100% 30.18 in 7.0 mi Calm Calm - N/A Rain Light Rain
5:35 AM 69.8 °F - 69.8 °F 100% 30.17 in 7.0 mi Calm Calm - 0.01 in Rain Light Rain
5:55 AM 69.8 °F - 69.8 °F 100% 30.18 in 7.0 mi Calm Calm - 0.04 in Rain Rain
6:15 AM 69.8 °F - 69.8 °F 100% 30.18 in 4.0 mi Calm Calm - 0.08 in Rain Heavy Rain
6:35 AM 69.8 °F - 69.8 °F 100% 30.17 in 3.0 mi Calm Calm - 0.15 in Rain Rain
6:55 AM 69.8 °F - 69.8 °F 100% 30.18 in 5.0 mi Calm Calm - 0.15 in Rain Rain
7:15 AM 69.8 °F - 69.8 °F 100% 30.18 in 7.0 mi Calm Calm - N/A Rain Light Rain
7:35 AM 71.6 °F - 71.6 °F 100% 30.19 in 1.8 mi Calm Calm - 0.02 in   Heavy Drizzle
7:55 AM 71.6 °F - 71.6 °F 100% 30.20 in 3.0 mi Calm Calm - 0.06 in   Heavy Drizzle
8:15 AM 71.6 °F - 71.6 °F 100% 30.20 in 2.5 mi Calm Calm - 0.02 in   Heavy Drizzle
8:35 AM 71.6 °F - 71.6 °F 100% 30.20 in 2.0 mi Calm Calm - 0.03 in   Drizzle
8:55 AM 71.6 °F - 71.6 °F 100% 30.20 in 4.0 mi Calm Calm - 0.03 in   Light Drizzle
9:15 AM 71.6 °F - 71.6 °F 100% 30.20 in 5.0 mi Calm Calm - N/A   Light Drizzle
9:35 AM 71.6 °F - 71.6 °F 100% 30.20 in 2.0 mi Calm Calm - N/A   Drizzle
9:55 AM 73.4 °F - 73.4 °F 100% 30.20 in 3.0 mi North 3.5 mph - 0.01 in   Drizzle
10:15 AM 73.4 °F - 73.4 °F 100% 30.20 in 4.0 mi Calm Calm - 0.01 in   Drizzle
10:35 AM 73.4 °F - 73.4 °F 100% 30.21 in 10.0 mi Calm Calm - 0.01 in   Overcast
10:55 AM 73.4 °F - 73.4 °F 100% 30.21 in 10.0 mi Calm Calm - 0.01 in   Overcast
11:15 AM 73.4 °F - 73.4 °F 100% 30.21 in 4.0 mi Calm Calm - 0.01 in   Light Drizzle
11:35 AM 75.2 °F - 73.4 °F 94% 30.21 in 10.0 mi Calm Calm - 0.01 in   Overcast
11:55 AM 75.2 °F - 73.4 °F 94% 30.20 in 10.0 mi North 3.5 mph - 0.01 in   Overcast
12:15 PM 77.0 °F - 73.4 °F 89% 30.19 in 10.0 mi Calm Calm - N/A   Scattered Clouds
12:35 PM 78.8 °F - 73.4 °F 83% 30.18 in 10.0 mi Calm Calm - N/A   Scattered Clouds
12:55 PM 80.6 °F 86.2 °F 75.2 °F 84% 30.18 in 10.0 mi Calm Calm - N/A   Scattered Clouds
1:15 PM 80.6 °F 84.6 °F 71.6 °F 74% 30.17 in 10.0 mi Calm Calm - N/A   Scattered Clouds
1:35 PM 80.6 °F 84.6 °F 71.6 °F 74% 30.16 in 10.0 mi Calm Calm - N/A   Mostly Cloudy
1:55 PM 82.4 °F 87.2 °F 71.6 °F 70% 30.16 in 10.0 mi West 3.5 mph - N/A   Scattered Clouds
2:15 PM 82.4 °F 87.2 °F 71.6 °F 70% 30.16 in 10.0 mi Calm Calm - N/A   Scattered Clouds
2:35 PM 84.2 °F 89.6 °F 71.6 °F 66% 30.15 in 10.0 mi Calm Calm - N/A   Clear
2:55 PM 84.2 °F 89.6 °F 71.6 °F 66% 30.14 in 10.0 mi Calm Calm - N/A   Clear
3:15 PM 84.2 °F 88.4 °F 69.8 °F 62% 30.14 in 10.0 mi Calm Calm - N/A   Scattered Clouds
3:35 PM 86.0 °F 90.4 °F 69.8 °F 58% 30.13 in 10.0 mi Calm Calm - N/A   Clear
3:55 PM 86.0 °F 91.8 °F 71.6 °F 62% 30.12 in 10.0 mi South 4.6 mph - N/A   Clear
4:15 PM 87.8 °F 93.8 °F 71.6 °F 58% 30.12 in 10.0 mi Calm Calm - N/A   Clear
4:35 PM 87.8 °F 92.6 °F 69.8 °F 55% 30.12 in 10.0 mi Calm Calm - N/A   Scattered Clouds
4:55 PM 87.8 °F 92.6 °F 69.8 °F 55% 30.11 in 10.0 mi South 5.8 mph - N/A   Clear
5:15 PM 87.8 °F 92.6 °F 69.8 °F 55% 30.10 in 10.0 mi South 4.6 mph - N/A   Clear
5:35 PM 87.8 °F 92.6 °F 69.8 °F 55% 30.10 in 10.0 mi South 4.6 mph - N/A   Clear
5:55 PM 87.8 °F 93.8 °F 71.6 °F 58% 30.10 in 10.0 mi South 5.8 mph - N/A   Clear
6:15 PM 87.8 °F 92.6 °F 69.8 °F 55% 30.10 in 10.0 mi South 4.6 mph - N/A   Clear
6:35 PM 87.8 °F 92.6 °F 69.8 °F 55% 30.10 in 10.0 mi South 6.9 mph - N/A   Clear
6:55 PM 87.8 °F 92.6 °F 69.8 °F 55% 30.10 in 10.0 mi South 5.8 mph - N/A   Clear
7:15 PM 86.0 °F 91.8 °F 71.6 °F 62% 30.10 in 10.0 mi South 5.8 mph - N/A   Clear
7:35 PM 84.2 °F 89.6 °F 71.6 °F 66% 30.10 in 10.0 mi South 5.8 mph - N/A   Clear
7:55 PM 84.2 °F 89.6 °F 71.6 °F 66% 30.10 in 10.0 mi South 4.6 mph - N/A   Clear
8:15 PM 82.4 °F 87.2 °F 71.6 °F 70% 30.10 in 10.0 mi South 3.5 mph - N/A   Clear
8:35 PM 78.8 °F - 73.4 °F 83% 30.10 in 10.0 mi Calm Calm - N/A   Clear
8:55 PM 75.2 °F - 73.4 °F 94% 30.11 in 10.0 mi Calm Calm - N/A   Clear
9:15 PM 75.2 °F - 73.4 °F 94% 30.11 in 10.0 mi Calm Calm - N/A   Clear
9:35 PM 75.2 °F - 73.4 °F 94% 30.12 in 10.0 mi Calm Calm - N/A   Clear
9:55 PM 75.2 °F - 73.4 °F 94% 30.13 in 10.0 mi Calm Calm - N/A   Clear
10:15 PM 75.2 °F - 73.4 °F 94% 30.14 in 10.0 mi Calm Calm - N/A   Clear
10:35 PM 73.4 °F - 73.4 °F 100% 30.14 in 10.0 mi Calm Calm - N/A   Clear
10:55 PM 75.2 °F - 73.4 °F 94% 30.14 in 10.0 mi Calm Calm - N/A   Clear
11:15 PM 73.4 °F - 73.4 °F 100% 30.14 in 10.0 mi Calm Calm - N/A   Clear
11:35 PM 73.4 °F - 73.4 °F 100% 30.14 in 10.0 mi Calm Calm - N/A   Clear
11:55 PM 73.4 °F - 73.4 °F 100% 30.14 in 10.0 mi Calm Calm - N/A   Clear